Regional Weather Roundup
Issued by NWS

Home | Current Version | Previous Version | Graphics & Text | Print | Product List | Glossary On
Versions: 1 2 3 4 5 6 7 8 9 10 11 12 13 14 15 16 17 18 19 20 21 22 23 24 25 26 27 28 29 30 31 32 33 34 35 36 37 38 39 40 41 42 43 44 45 46 47 48 49 50
000
ASUS43 KMPX 021901
RWRMN
WEATHER ROUNDUP FOR MINNESOTA
NATIONAL WEATHER SERVICE TWIN CITIES/CHANHASSEN MN
200 PM CDT MON MAY 02 2016


NOTE: "FAIR" INDICATES FEW OR NO CLOUDS BELOW 12,000 FEET WITH NO
SIGNIFICANT WEATHER AND/OR OBSTRUCTIONS TO VISIBILITY. N/A MEANS
CURRENT SKY AND/OR WEATHER CONDITIONS ARE NOT AVAILABLE.

MNZ060>063-068>070-022000-
   Twin Cities Metro

CITY           SKY/WX    TMP DP  RH WIND       PRES   REMARKS
TWIN CITIES    MOSUNNY   63  30  28 CALM      30.06F
ST PAUL        SUNNY     63  32  31 E3        30.07F
CRYSTAL        SUNNY     65  30  27 SE7       30.05F
BLAINE         MOSUNNY   64  34  32 VRB3      30.06F
EDEN PRAIRIE   SUNNY     66  30  26 SE6       30.05F
SOUTH ST PAUL  SUNNY     63  30  29 SW3       30.06F
LAKE ELMO      FAIR      63  34  34 NW5       30.07F
$$
MNZ001>005-007-008-013>017-022>024-027-028-022000-
   Northwest Minnesota

CITY           SKY/WX    TMP DP  RH WIND       PRES   REMARKS
BEMIDJI        SUNNY     64  24  22 SE7       30.01F
HALLOCK        PTSUNNY   66  21  18 SE7       29.99F
ROSEAU         SUNNY     66  21  18 CALM      30.01F
WARROAD        SUNNY     63  36  36 NE10      30.03F
THIEF RVR FALL SUNNY     66  27  22 SE6       30.01F
CROOKSTON      SUNNY     68  28  22 NW3       30.00F
FOSSTON        MOSUNNY   68  30  24 CALM      30.01F
DETROIT LAKES  SUNNY     64  28  25 S5        30.03F
MOORHEAD       MOSUNNY   66  27  22 CALM      30.01F
PARK RAPIDS    MOSUNNY   66  26  22 VRB6G18   30.02F
MAHNOMEN       FAIR      65  26  23 E7        30.01F
$$
MNZ006-009>011-018-025>026-022000-
   North Central Minnesota

CITY           SKY/WX    TMP DP  RH WIND       PRES   REMARKS
BAUDETTE       SUNNY     66  27  23 E7        30.02F
FLAG ISLAND    SUNNY     59  25  27 S3        30.02F
INTL FALLS     SUNNY     64  30  27 CALM      30.02F
WASKISH        SUNNY     63  34  34 W5        30.02F
BIG FORK       MOSUNNY   66  28  24 E3        30.02F
LONGVILLE      SUNNY     64  27  24 SW8       30.03F
GRAND RAPIDS   MOSUNNY   63  30  29 SE8       30.04F
CRANE LAKE     MOSUNNY   63  27  25 N5        30.03F
ORR            SUNNY     66  25  20 NW7       29.99F
COOK           MOSUNNY   64  32  29 SW5       30.02F
WALKER         FAIR      62  30  29 E7        30.03F
$$
MNZ012-019>021-037-022000-
   Northeast Minnesota

CITY           SKY/WX    TMP DP  RH WIND       PRES   REMARKS
DULUTH         MOSUNNY   62  34  35 S10       30.05F
ELY            SUNNY     63  27  25 S6        30.03F
HIBBING        MOSUNNY   61  31  32 NW6       30.03F
EVELETH        SUNNY     61  28  29 CALM      30.04F
DULUTH HARBOR  SUNNY     45  37  76 NE3       30.08F
TWO HARBORS    SUNNY     63  39  42 SE10      30.04F
SILVER BAY     SUNNY     61  34  36 SE7       30.04F
GRAND MARAIS     N/A     42  34  73 E5        30.09F
G MARAIS ARPRT SUNNY     55  28  35 S10       30.06F
$$
MNZ029>031-032-039>041-046>048-054>057-064-022000-
   West Central Minnesota

CITY           SKY/WX    TMP DP  RH WIND       PRES   REMARKS
FERGUS FALLS   SUNNY     66  34  30 S8        30.00F
WHEATON        MOSUNNY   68  36  30 SE3       30.03F
MORRIS         PTSUNNY   64  30  27 W7        30.02F
ALEXANDRIA     MOSUNNY   65  28  24 S8        30.04F
ELBOW LAKE     PTSUNNY   66  33  29 SW6       30.03F
WADENA         SUNNY     64  32  29 SE7       30.02F
GLENWOOD       PTSUNNY   63  30  29 E8        30.04F
APPLETON       SUNNY     66  25  20 CALM      30.03F
BENSON         PTSUNNY   66  27  22 CALM      30.04F
ORTONVILLE     MOSUNNY   64  28  25 W3        30.03F
MADISON        MOSUNNY   64  28  25 CALM      30.03F
WILLMAR        FAIR      64  34  32 CALM      30.06F
$$
MNZ033>034-036-042>043-049>051-058-059-022000-
   Central Minnesota

CITY           SKY/WX    TMP DP  RH WIND       PRES   REMARKS
ST CLOUD       SUNNY     64  32  30 VRB3      30.05F
SAUK CENTRE    FAIR      62  30  30 CALM      30.05S
PAYNESVILLE    CLOUDY    63  30  29 CALM      30.05F
AITKIN         PTSUNNY   66  25  20 S7        30.03F
PINE RIVER     PTSUNNY   63  36  36 NE5       30.06F
BRAINERD       PTSUNNY   62  30  29 W7        30.04F
STAPLES        MOSUNNY   61  27  27 CALM      30.03F
LONG PRAIRIE   FAIR      63  30  29 CALM      30.05F
LITTLE FALLS   PTSUNNY   63  30  29 SW3       30.05S
LITCHFIELD     MOSUNNY   64  34  32 NW3       30.05F
BUFFALO        SUNNY     63  30  28 NW3       30.06F
MAPLE LAKE     SUNNY     64  36  35 CALM      30.07F
HUTCHINSON     MOSUNNY   65  40  39 SE6       30.07F
$$
MNZ037-044-045-052-053-022000-
   East Central Minnesota

CITY           SKY/WX    TMP DP  RH WIND       PRES   REMARKS
PRINCETON      MOSUNNY   64  32  29 N6        30.06F
MORA           SUNNY     63  32  31 CALM      30.07F
CAMBRIDGE      MOSUNNY   66  43  42 E3        30.04F
RUSH CITY      SUNNY     63  34  33 N6        30.06F
MOOSE LAKE     SUNNY     64  32  29 E6        30.04S
HINCKLEY       MOCLDY    63  34  34 CALM      30.06S
CLOQUET        SUNNY     61  27  27 CALM      30.05F
MCGREGOR       PTSUNNY   63  32  31 SW6       30.05F
$$
MNZ071>073-080-081-089-090-097-098-022000-
   Southwest Minnesota

CITY           SKY/WX    TMP DP  RH WIND       PRES   REMARKS
MONTEVIDEO     SUNNY     68  32  26 NE6       30.06F
GRANITE FALLS  MOSUNNY   66  34  30 CALM      30.06F
CANBY          MOSUNNY   68  35  29 SE7       30.05F
MARSHALL       PTSUNNY   64  33  31 NE3       30.05F
REDWOOD FALLS  SUNNY     64  29  26 CALM      30.05F
OLIVIA         MOSUNNY   63  32  31 CALM      30.04F
PIPESTONE      SUNNY     63  34  34 W6        30.06F
WINDOM         MOSUNNY   63  32  31 CALM      30.06F
WORTHINGTON    CLOUDY    59  33  37 VRB3      30.07F
JACKSON        MOSUNNY   59  32  36 CALM      30.08F
TRACY          MOSUNNY   64  34  33 SW5       30.05F
SLAYTON        MOSUNNY   61  32  33 S3        30.07F
$$
MNZ065>067-074>077-082>085-091>093-022000-
   South Central Minnesota

CITY           SKY/WX    TMP DP  RH WIND       PRES   REMARKS
MANKATO        MOSUNNY   61  30  31 E3        30.07F
NEW ULM        SUNNY     63  36  36 W5        30.06F
ST JAMES       MOSUNNY   57  32  38 W7        30.08F
FAIRMONT       PTSUNNY   61  25  25 CALM      30.08S
GLENCOE        MOSUNNY   62  38  40 CALM      30.06F
FARIBAULT      SUNNY     63  34  34 W6        30.07F
OWATONNA       MOSUNNY   63  34  34 CALM      30.07F
WASECA         MOSUNNY   63  34  34 CALM      30.08F
ALBERT LEA     PTSUNNY   61  37  41 S3        30.07F
$$
MNZ078>079-086>088-094>096-022000-
   Southeast Minnesota

CITY           SKY/WX    TMP DP  RH WIND       PRES   REMARKS
ROCHESTER      MOSUNNY   61  37  41 VRB5      30.08F
RED WING       SUNNY     66  30  26 W6        30.05F
STANTON        SUNNY     65  33  31 S6        30.05F
DODGE CENTER   SUNNY     63  37  39 CALM      30.07F
WINONA         SUNNY     63  36  36 W6        30.07F
AUSTIN         PTSUNNY   61  36  39 CALM      30.07S
PRESTON        CLOUDY    58  38  47 NW5       30.08F
$$
ABBREVIATIONS USED IN REMARKS
   TC - TEMPERATURES IN CELSIUS
  WCI - WIND CHILL INDEX
   HX - HEAT INDEX
  VSB - VISIBILITY
$$




USA.gov is the U.S. government's official web portal to all federal, state and local government web resources and services.